Probability
0 0 0 0 0 0 0 0 0 0 0 0 0 0 0 0 0 0 0 0 0 0 0 0 0 0 0 0 0 0 0 0 0 0 0 0 0 0 0 0 0 0 0
0 0 0 0 0 0 0 0 0 0 0 0 0 0 0 0 0 0 0 0 0 0 0 0 0 0 0 0 0 0 0 0 0 0 0 0 0 0 0 0 0 0 0
0 0 0 0 0 0 0 0 0 0 0 0 0 0 0 0 0 0 0 0 0 0 0 0 0 0 0 0 0 0 0 0 0 0 0 0 0 0 0 0 0 0 0
0 0 0 0 0 0 0 0 0 0 0 0 0 0 0 0 0 0 0 0 0 0 0 0 0 0 0 0 0 0 0 0 0 0 0 0 0 0 0 0 0 0 0
0 0 0 0 0 0 0 0 0 0 0 0 0 0 0 0 0 0 0 0 0 0 0 0 0 0 0 0 0 0 0 0 0 0 0 0 0 0 0 0 0 0 0
0 0 0 0 0 0 0 0 0 0 0 0 0 0 0 0 0 0 0 0 0 0 0 0 0 0 0 0 0 0 0 0 0 0 0 0 0 0 0 0 0 0 0
0 0 0 0 0 0 0 0 0 0 0 0 0 0 0 0 0 0 0 0 0 0 0 0 0 0 0 0 0 0 0 0 0 0 0 0 0 0 0 0 0 0 0
0 0 0 0 0 0 0 0 0 0 0 0 0 0 0 0 0 0 0 0 0 0 0 0 0 0 0 0 0 0 0 0 0 0 0 0 0 0 0 0 0 0 0
0 0 0 0 0 0 0 0 0 0 0 0 0 0 0 0 0 0 0 0 0 0 0 0 0 0 0 0 0 0 0 0 0 0 0 0 0 0 0 0 0 0 0
0 0 0 0 0 0 0 0 0 0 0 0 0 0 0 0 0 0 0 0 0 0 0 0 0 0 0 0 0 0 0 0 0 0 0 0 0 0 0 0 0 0 0
0 0 0 0 0 0 0 0 0 0 0 0 0 0 0 0 0 0 0 0 0 0 0 0 0 0 0 0 0 0 0 0 0 0 0 0 0 0 0 0 0 0 0
0 0 0 0 0 0 0 0 0 0 0 0 0 0 0 0 0 0 0 0 0 0 0 0 0 0 0 0 0 0 0 0 0 0 0 0 0 0 0 0 0 0 0
0 0 0 0 0 0 0 0 0 0 0 0 0 0 0 0 0 0 0 0 0 0 0 0 0 0 0 0 0 0 0 0 0 0 0 0 0 0 0 0 0 0 0
0 0 0 0 0 0 0 0 0 0 0 0 0 0 0 0 0 0 0 0 0 0 0 0 0 0 0 0 0 0 0 0 0 0 0 0 0 0 0 0 0 0 0
0 0 0 0 0 0 0 0 0 0 0 0 0 0 0 0 0 0 0 0 0 0 0 0 0 0 0 0 0 0 0 0 0 0 0 0 0 0 0 0 0 0 0
0 0 0 0 0 0 0 0 0 0 0 0 0 0 0 0 0 0 0 0 0 0 0 0 0 0 0 0 0 0 0 0 0 0 0 0 0 0 0 0 0 0 0
0 0 0 0 0 0 0 0 0 0 0 0 0 0 0 0 0 0 0 0 0 0 0 0 0 0 0 0 0 0 0 0 0 0 0 0 0 0 0 0 0 0 0
0 0 0 0 0 0 0 0 0 0 0 0 0 0 0 0 0 0 0 0 0 0 0 0 0 0 0 0 0 0 0 0 0 0 0 0 0 0 0 0 0 0 0
0 0 0 0 0 0 0 0 0 0 0 0 0 0 0 0 0 0 0 0 0 0 0 0 0 0 0 0 0 0 0 0 0 0 0 0 0 0 0 0 0 0 0
0 0 0 0 0 0 0 0 0 0 0 0 0 0 0 0 0 0 0 0 0 0 0 0 0 0 0 0 0 0 0 0 0 0 0 0 0 0 0 0 0 0 0
0 0 0 0 0 0 0 0 0 0 0 0 0 0 0 0 0 0 0 0 0 0 0 0 0 0 0 0 0 0 0 0 0 0 0 0 0 0 0 0 0 0 0
0 0 0 0 0 0 0 0 0 0 0 0 0 0 0 0 0 0 0 0 0 0 0 0 0 0 0 0 0 0 0 0 0 0 0 0 0 0 0 0 0 0 0
0 0 0 0 0 0 0 0 0 0 0 0 0 0 0 0 0 0 0 0 0 0 0 0 0 0 0 0 0 0 0 0 0 0 0 0 0 0 0 0 0 0 0
0 0 0 0 0 0 0 0 0 0 0 0 0 0 0 0 0 0 0 0 0 0 0 0 0 0 0 0 0 0 0 0 0 0 0 0 0 0 0 0 0 0 0
0 0 0 0 0 0 0 0 0 0 0 0 0 0 0 0 0 0 0 0 0 0 0 0 0 0 0 0 0 0 0 0 0 0 0 0 0 0 0 0 0 0 0
0 0 0 0 0 0 0 0 0 0 0 0 0 0 0 0 0 0 0 0 0 0 0 0 0 0 0 0 0 0 0 0 0 0 0 0 0 0 0 0 0 0 0
Height
5790 5791 5793 5794 5795 5796 5796 5796 5795 5795 5795 5795 5795 5796 5797 5797 5799 5800 5802 5803 5804 5806 5807 5807 5808 5808 5808 5809 5810 5811 5812 5812 5812 5813 5813 5815 5815 5816 5817 5817 5819 5821 5823
5784 5785 5787 5788 5789 5790 5790 5790 5789 5789 5788 5789 5789 5790 5791 5792 5793 5794 5796 5797 5798 5799 5800 5801 5801 5802 5802 5803 5804 5805 5806 5806 5807 5808 5808 5809 5810 5810 5811 5812 5814 5815 5817
5781 5782 5783 5784 5784 5785 5785 5785 5785 5784 5784 5785 5785 5786 5787 5787 5788 5789 5791 5791 5792 5793 5794 5794 5795 5796 5796 5796 5797 5799 5800 5800 5801 5802 5803 5804 5805 5805 5805 5806 5808 5809 5811
5781 5781 5782 5782 5782 5782 5783 5782 5782 5782 5782 5782 5782 5782 5783 5784 5784 5785 5785 5786 5786 5787 5787 5788 5789 5789 5790 5790 5791 5793 5794 5795 5795 5797 5798 5799 5800 5800 5800 5801 5802 5804 5806
5784 5783 5783 5783 5783 5783 5782 5782 5781 5781 5781 5780 5780 5780 5780 5779 5779 5779 5779 5779 5779 5780 5781 5782 5783 5783 5783 5784 5785 5786 5787 5789 5790 5792 5793 5794 5795 5795 5796 5796 5797 5798 5801
5788 5787 5786 5786 5785 5784 5783 5782 5781 5780 5779 5778 5777 5776 5775 5774 5773 5773 5773 5773 5773 5774 5775 5776 5777 5777 5777 5778 5779 5780 5781 5783 5785 5786 5788 5789 5790 5791 5792 5792 5792 5794 5796
5791 5790 5789 5788 5787 5785 5783 5782 5780 5778 5776 5774 5772 5771 5769 5768 5767 5766 5766 5766 5766 5767 5768 5769 5770 5770 5770 5771 5772 5773 5775 5776 5778 5780 5782 5784 5785 5786 5787 5787 5788 5789 5790
5793 5792 5790 5789 5787 5785 5783 5781 5778 5776 5773 5770 5768 5766 5764 5762 5761 5760 5760 5760 5760 5761 5761 5763 5763 5764 5764 5765 5766 5767 5768 5769 5771 5773 5776 5778 5779 5781 5782 5783 5783 5784 5785
5795 5793 5792 5790 5787 5785 5782 5779 5776 5773 5770 5767 5764 5761 5758 5756 5755 5754 5754 5754 5754 5754 5755 5756 5757 5757 5758 5759 5760 5762 5763 5764 5765 5767 5769 5771 5773 5775 5777 5778 5779 5780 5781
5797 5795 5793 5790 5788 5785 5781 5778 5774 5770 5766 5763 5759 5756 5753 5751 5749 5748 5748 5748 5748 5748 5748 5749 5750 5751 5752 5753 5754 5756 5758 5759 5761 5762 5764 5766 5768 5770 5772 5774 5775 5776 5776
5799 5797 5794 5791 5788 5784 5780 5776 5771 5766 5761 5757 5753 5750 5747 5745 5743 5742 5742 5741 5741 5741 5742 5742 5743 5744 5745 5746 5748 5751 5752 5754 5756 5758 5760 5762 5764 5765 5767 5769 5770 5771 5771
5801 5798 5795 5792 5788 5784 5779 5773 5767 5761 5756 5751 5747 5744 5741 5740 5738 5737 5736 5736 5735 5735 5735 5735 5736 5737 5738 5740 5742 5745 5747 5750 5752 5754 5757 5758 5760 5761 5763 5764 5765 5766 5766
5803 5800 5797 5793 5789 5784 5779 5772 5766 5759 5752 5747 5744 5740 5738 5736 5735 5734 5733 5731 5730 5730 5729 5729 5729 5730 5731 5733 5736 5739 5742 5745 5748 5751 5753 5755 5757 5759 5760 5761 5762 5763 5763
5805 5802 5798 5795 5790 5786 5780 5774 5767 5760 5754 5748 5744 5741 5738 5736 5734 5732 5731 5729 5727 5726 5724 5723 5723 5723 5724 5726 5729 5733 5737 5741 5744 5747 5750 5753 5755 5756 5758 5759 5759 5760 5759
5807 5804 5800 5797 5793 5788 5783 5777 5771 5765 5758 5753 5748 5744 5741 5739 5736 5734 5731 5729 5726 5723 5721 5718 5717 5716 5717 5720 5724 5728 5733 5738 5742 5745 5748 5751 5753 5755 5756 5757 5757 5757 5756
5809 5806 5803 5799 5796 5791 5786 5781 5775 5770 5764 5759 5754 5750 5746 5742 5739 5736 5733 5730 5727 5723 5720 5717 5714 5713 5713 5717 5721 5727 5732 5737 5742 5745 5748 5751 5753 5754 5755 5755 5755 5754 5752
5811 5808 5805 5802 5798 5794 5790 5785 5780 5775 5770 5765 5761 5756 5752 5748 5745 5741 5738 5734 5730 5726 5722 5719 5716 5715 5716 5719 5723 5729 5734 5739 5743 5746 5749 5751 5753 5753 5754 5754 5753 5752 5750
5813 5810 5807 5804 5801 5797 5793 5789 5785 5780 5776 5771 5767 5763 5759 5755 5752 5748 5744 5741 5737 5733 5730 5726 5724 5723 5724 5726 5730 5734 5738 5742 5746 5748 5750 5752 5753 5754 5754 5753 5752 5750 5748
5816 5813 5810 5807 5803 5800 5797 5793 5789 5785 5781 5777 5774 5770 5766 5763 5759 5756 5752 5749 5746 5743 5739 5737 5735 5734 5734 5736 5738 5741 5744 5747 5749 5751 5752 5753 5754 5754 5754 5753 5751 5749 5747
5818 5815 5812 5809 5806 5803 5800 5797 5793 5790 5786 5783 5780 5776 5773 5770 5767 5764 5761 5757 5755 5752 5750 5748 5746 5745 5745 5746 5747 5748 5750 5752 5753 5754 5755 5755 5755 5755 5754 5753 5751 5749 5746
5820 5818 5815 5811 5808 5805 5803 5800 5797 5794 5791 5788 5785 5782 5779 5776 5773 5770 5767 5764 5762 5760 5758 5757 5756 5755 5754 5754 5754 5755 5756 5756 5756 5756 5757 5756 5756 5755 5754 5753 5751 5748 5745
5822 5820 5817 5814 5811 5808 5805 5803 5800 5797 5795 5792 5789 5786 5783 5780 5778 5775 5772 5770 5768 5766 5765 5763 5762 5761 5761 5760 5760 5760 5759 5759 5759 5758 5758 5757 5756 5755 5754 5752 5750 5748 5744
5823 5821 5819 5816 5813 5810 5807 5805 5803 5800 5798 5795 5793 5790 5787 5785 5782 5780 5777 5775 5773 5771 5769 5768 5767 5765 5764 5763 5763 5762 5762 5761 5760 5759 5759 5758 5756 5755 5754 5752 5750 5747 5744
5823 5821 5819 5817 5815 5812 5809 5807 5805 5802 5800 5798 5795 5793 5791 5788 5786 5784 5781 5779 5777 5775 5773 5772 5770 5769 5768 5766 5765 5764 5763 5762 5761 5760 5759 5758 5756 5755 5754 5752 5750 5747 5744
5822 5821 5820 5818 5816 5814 5811 5809 5806 5804 5802 5800 5798 5795 5793 5791 5789 5787 5785 5783 5781 5780 5778 5776 5775 5773 5772 5770 5769 5767 5766 5764 5762 5761 5759 5758 5757 5755 5754 5752 5749 5746 5743
5821 5820 5819 5818 5816 5814 5812 5810 5808 5806 5804 5801 5799 5797 5795 5793 5792 5790 5788 5786 5785 5784 5782 5781 5779 5778 5776 5774 5773 5771 5769 5767 5765 5763 5761 5759 5757 5756 5754 5751 5749 5746 5743
Wind_Speed
27 25 24 24 25 25 26 28 29 30 31 31 30 28 27 26 26 26 24 21 21 22 23 24 24 24 24 24 24 25 24 23 21 21 21 21 21 21 23 24 23 24 24
19 19 19 20 21 22 24 24 24 23 21 19 19 20 21 22 21 20 20 19 20 22 23 23 24 23 24 24 24 25 25 24 22 21 21 21 20 21 22 23 24 23 23
10 11 13 14 15 15 14 13 13 12 13 13 14 15 15 16 16 18 19 20 21 22 22 23 23 23 23 23 24 25 25 24 23 22 20 20 20 20 20 22 23 24 23
4 2 2 2 2 3 3 4 5 6 8 10 12 14 16 17 18 19 20 20 21 21 21 22 22 22 23 23 24 25 25 24 23 21 21 20 19 18 17 18 20 22 22
13 11 9 8 6 6 7 8 10 11 12 13 15 16 17 18 19 19 19 20 21 21 21 21 22 22 22 22 23 25 25 24 23 21 20 20 19 17 16 16 18 20 20
10 9 9 8 8 9 10 11 13 14 15 16 16 17 18 19 19 19 20 20 20 20 21 22 22 22 21 22 22 24 25 24 24 23 21 20 20 18 17 15 15 18 20
8 7 7 8 8 9 11 12 14 15 17 18 19 20 21 21 21 21 21 20 20 20 20 21 21 20 20 19 20 21 23 24 24 23 23 22 21 20 18 17 16 15 18
10 9 9 9 10 10 11 12 13 14 16 17 18 20 21 21 22 21 20 20 20 20 20 19 18 17 17 17 16 16 18 21 23 24 23 22 21 20 18 16 14 13 12
12 12 12 12 12 12 13 13 13 14 15 16 17 18 19 20 20 20 19 19 19 19 19 18 17 16 16 15 14 14 14 15 18 20 21 21 20 19 18 17 16 16 16
15 15 15 15 15 15 15 15 15 16 16 17 17 18 18 18 18 18 17 18 18 19 18 18 17 17 17 16 15 14 14 14 14 16 19 19 19 18 18 17 17 17 17
16 16 17 17 18 19 19 20 20 20 19 19 18 18 18 17 17 16 16 16 17 17 17 17 17 18 18 17 17 16 16 14 13 13 14 16 16 16 15 16 16 16 16
17 17 19 20 21 23 24 24 25 24 22 20 19 18 17 16 15 14 14 14 15 16 16 17 17 18 18 18 18 18 17 15 14 13 12 11 11 11 12 12 13 14 15
17 18 20 22 24 25 26 27 28 26 23 19 17 15 14 13 12 12 12 13 13 14 14 15 16 17 18 18 18 17 16 15 15 13 11 9 8 8 7 8 9 11 13
17 18 20 22 24 26 27 28 29 27 25 21 17 15 13 11 9 9 9 10 10 10 11 13 15 16 16 17 17 17 16 14 13 12 10 9 7 5 5 5 7 10 13
17 18 19 21 24 26 27 28 29 28 27 25 22 19 16 14 12 11 10 10 9 9 10 10 9 10 11 13 14 15 15 13 10 9 9 8 6 3 3 5 8 10 13
16 17 18 20 22 25 26 27 28 28 28 28 27 25 22 20 18 16 15 14 14 12 10 8 5 1 4 9 12 13 14 12 10 10 9 7 4 2 4 6 8 10 13
16 17 18 19 21 24 26 26 27 27 27 27 27 27 26 25 24 22 21 20 19 19 17 15 13 13 13 14 15 15 15 13 12 10 8 5 2 1 3 6 8 10 12
16 17 17 18 19 21 24 25 25 25 26 26 26 27 27 27 27 25 25 25 25 25 24 24 23 21 21 20 19 18 17 15 12 9 7 5 4 3 4 6 8 10 13
16 17 17 18 19 19 21 22 23 24 24 24 24 25 25 26 26 26 26 26 27 27 28 28 27 26 25 23 22 20 17 15 12 10 8 7 6 6 6 8 10 13 15
16 17 18 19 19 19 19 20 21 22 22 22 22 22 22 23 23 24 24 25 25 26 26 26 26 25 24 23 21 19 17 15 12 10 9 8 7 8 9 10 12 15 17
14 17 18 19 18 18 18 18 19 19 20 19 19 19 19 20 20 20 21 21 21 21 21 22 21 21 20 19 18 16 14 12 11 10 9 9 9 10 11 12 14 16 19
11 14 17 18 18 18 17 17 17 17 17 18 18 18 18 18 18 18 18 18 17 17 17 17 16 16 15 14 13 12 11 10 9 9 9 9 10 11 12 14 15 17 18
9 11 15 17 18 17 16 16 16 16 15 15 16 17 17 17 17 17 17 17 16 16 16 15 15 14 13 12 11 10 9 8 8 8 9 9 10 11 13 14 15 16 18
7 9 12 15 16 17 16 15 15 15 15 15 14 15 15 15 16 16 17 17 17 17 16 16 15 15 14 14 13 12 11 10 10 10 10 10 11 11 12 13 15 16 18
6 7 9 11 13 14 15 15 15 14 14 14 14 14 14 14 14 15 16 16 17 17 17 17 17 17 17 17 17 16 15 14 14 13 12 12 11 11 12 13 14 16 17
5 6 7 9 10 12 13 13 14 14 14 14 13 13 13 13 13 13 14 14 15 15 16 16 16 16 17 17 17 17 17 16 16 15 15 14 12 12 12 12 14 15 16
Wind_Direction
263 262 258 254 255 259 264 266 267 268 268 267 263 258 252 245 240 237 238 245 253 261 267 270 272 272 272 270 270 272 273 271 270 273 277 279 276 271 263 261 256 248 245
263 260 256 255 257 261 264 264 263 260 257 253 246 237 233 235 236 240 249 256 261 265 268 271 272 272 272 270 269 270 270 267 265 267 274 278 278 273 265 257 251 248 245
252 248 248 250 251 252 252 251 249 246 244 243 243 245 247 252 257 262 264 265 265 267 269 270 271 272 271 270 268 267 267 265 263 264 269 275 278 275 268 256 249 247 242
102 132 178 188 204 226 246 258 273 282 281 279 276 276 276 274 273 271 269 267 266 266 267 268 269 271 270 269 267 266 265 264 263 263 264 270 277 275 266 254 248 245 239
57 55 48 38 20 357 339 326 318 312 304 297 293 289 285 282 280 277 273 271 268 266 265 264 267 270 270 268 267 266 264 264 263 262 262 265 271 271 265 252 247 245 241
40 32 22 11 357 345 333 324 319 314 308 302 299 296 293 292 289 287 283 279 273 269 264 260 264 269 271 268 267 266 264 262 261 259 259 261 264 267 265 259 252 247 248
36 25 14 2 353 344 336 328 321 315 310 306 302 299 297 295 292 289 285 279 272 267 264 264 266 269 271 272 270 269 266 262 259 257 256 257 260 262 263 260 262 260 253
42 37 30 20 9 358 348 339 330 323 317 311 305 301 298 295 291 288 283 275 268 264 264 266 268 269 270 271 271 271 270 263 257 255 254 253 256 259 263 264 269 272 276
44 37 29 21 13 5 358 349 340 332 324 317 311 306 301 297 292 286 281 274 269 266 265 265 265 266 267 267 267 268 271 268 260 254 253 252 254 257 259 261 263 266 271
37 32 28 24 19 11 3 355 346 337 329 321 315 310 304 299 293 286 279 273 269 267 265 262 261 263 264 265 264 262 262 264 264 258 253 251 252 254 257 261 264 266 269
39 36 31 24 16 9 3 357 350 342 334 327 319 313 309 305 300 292 284 276 271 267 264 261 260 259 258 258 258 257 256 255 258 259 258 253 250 252 256 262 267 272 276
32 28 24 18 14 10 6 2 356 349 342 336 328 320 315 311 305 300 292 283 276 272 268 265 263 260 257 256 255 253 250 248 246 248 254 255 249 249 253 261 269 276 280
24 22 19 17 15 13 11 9 6 2 357 351 346 340 334 327 320 312 304 296 288 281 275 270 267 264 260 256 251 245 242 240 239 239 243 248 245 244 252 260 267 277 286
18 18 18 18 18 17 16 15 16 17 18 17 13 8 3 358 351 341 332 321 311 300 289 283 275 267 258 249 241 233 229 229 230 230 233 231 227 227 248 273 287 294 300
17 18 19 20 21 21 20 21 23 27 31 33 34 35 35 32 28 21 13 3 351 334 320 308 290 269 250 233 221 212 209 209 210 205 197 194 197 217 272 299 309 313 315
19 19 20 21 23 24 24 25 28 33 37 40 42 43 43 44 42 39 35 30 24 19 18 17 15 35 180 181 181 181 182 180 177 170 167 171 186 247 311 324 328 330 331
18 17 18 21 25 27 27 28 31 35 38 42 45 47 48 49 49 48 45 44 44 46 50 56 65 83 109 128 140 149 155 155 152 150 150 152 147 15 355 349 347 347 345
18 17 18 21 26 29 30 30 32 36 39 42 44 46 49 50 51 52 53 54 55 57 61 67 75 84 95 108 118 126 131 132 132 130 124 111 87 57 31 16 7 0 355
19 20 21 23 27 30 31 32 33 36 39 41 44 45 47 50 53 55 57 59 60 62 65 70 76 83 90 97 104 110 114 116 113 108 102 93 78 57 38 22 11 5 2
21 23 23 24 26 29 32 33 34 36 39 41 43 45 47 50 53 55 58 60 61 63 66 70 74 80 85 90 94 97 99 100 97 93 85 72 54 37 25 17 12 9 7
21 23 24 24 24 27 31 34 35 36 38 41 42 44 45 47 50 53 56 58 59 61 63 66 70 74 78 82 85 87 87 86 81 72 60 48 36 29 23 17 14 13 11
17 20 22 23 24 26 30 32 34 35 37 39 41 43 44 46 47 49 51 53 54 56 58 60 62 65 69 72 73 72 70 67 61 53 44 36 30 24 20 17 16 16 16
5 11 16 19 22 25 27 29 31 33 35 37 39 41 43 44 44 45 46 47 48 51 53 55 57 58 59 59 58 57 53 48 42 36 31 26 22 19 19 19 19 19 19
351 358 4 9 16 21 25 27 29 30 32 33 34 36 37 39 40 42 43 44 45 47 50 53 54 55 55 55 54 52 48 43 38 33 30 28 27 26 26 24 23 21 21
330 341 350 358 5 13 19 24 26 28 29 30 31 32 33 34 36 38 42 44 46 48 50 53 55 56 56 57 56 55 52 49 45 41 38 35 34 33 31 28 25 23 21
307 322 334 344 352 360 8 16 21 23 25 25 26 28 30 32 34 36 39 44 46 47 49 51 53 54 54 54 54 52 50 48 45 42 40 39 38 38 35 30 26 23 20